Starlink 2582

operational
NORAD ID: 48460 Int'l Des: 2021-040 Owner: SPXS Country: US Constellation: starlink
LEOCIRCULAR

Starlink 2582について

説明を読み込み中...

リアルタイム位置

3D地球を読み込み中...

次回通過

高度履歴

Altitude vs Time

uPlot chart will show altitude changes over time

軌道要素

1 48460U 21040AJ 25278.90885063 .00026336 00000-0 98579-3 0 9993
2 48460 53.0670 141.7477 0007497 143.7903 216.3604 15.27126033244024
Epoch: Oct 5, 2025 • Age: 12 hours

現在のステータス

高度 482.8 km
速度 7.63 km/s
衛星直下点 39.22°N, 126.16°E
打ち上げ日 May 9, 2021
運用期間 4.4 years
タイプ internet

技術仕様

分類 Payload
質量 260.00 kg
乾燥質量 248.00 kg
総質量 260.00 kg
長さ 0.20 m
直径 2.80 m
スパン 9.00 m
形状 Box + pan
製造者 SPXS
バスタイプ Starlink
フェーズステータス In Orbit
所有者/国 SPXS/US

大規模コンステレーション

Loading constellations...